Simultaneous Nadir Overpasses (SNOs) Predictions

Prediction of SNOs between METOP-B and NOAA-19 Satellite Orbit:

Table of predicted SNOs for the next 14.0 days since TLE Epoch: 11/25/2012
Index Date (METOP-B) Time (METOP-B) METOP-B Lat,Lon Date (NOAA-19) Time (NOAA-19) NOAA-19 Lat,Lon Distance(km) Time Diff (sec)
1 11/26/2012 00:09:15 73.62, 171.58 11/26/2012 00:08:05 73.63, 169.62 61.26 70
2 11/26/2012 01:00:07 -73.15, -22.17 11/26/2012 00:59:00 -73.18, -22.11 3.19 67
3 11/26/2012 01:50:46 73.16, 145.17 11/26/2012 01:50:00 73.14, 145.23 2.86 46
4 11/26/2012 02:41:29 -73.14, -47.55 11/26/2012 02:41:04 -73.13, -47.53 0.78 25
5 11/26/2012 03:32:08 73.14, 119.79 11/26/2012 03:32:05 73.14, 119.70 2.92 3
6 11/26/2012 04:22:51 -73.12, -72.92 11/26/2012 04:23:08 -73.09, -72.94 3.51 17
7 11/26/2012 05:13:31 73.07, 94.30 11/26/2012 05:14:09 73.09, 94.29 2.90 38
8 11/26/2012 06:04:14 -73.05, -98.41 11/26/2012 06:05:12 -73.04, -98.36 1.81 58
9 11/26/2012 06:54:57 72.85, 68.49 11/26/2012 06:56:09 72.85, 69.30 26.55 72
10 12/05/2012 23:11:41 -73.65, 6.05 12/05/2012 23:10:32 -73.67, 3.94 66.09 69
11 12/06/2012 00:02:29 73.19, 172.34 12/06/2012 00:01:25 73.16, 172.35 2.48 64
12 12/06/2012 00:53:12 -73.18, -20.35 12/06/2012 00:52:27 -73.18, -20.44 3.02 45
13 12/06/2012 01:43:52 73.12, 146.85 12/06/2012 01:43:29 73.12, 146.93 2.69 23
14 12/06/2012 02:34:35 -73.11, -45.84 12/06/2012 02:34:31 -73.14, -45.86 3.03 4
15 12/06/2012 03:25:14 73.10, 121.47 12/06/2012 03:25:33 73.07, 121.51 3.05
